User: anonymous   Login
Location: Unspecified
(50.1700°N, 6.8600°E)
Time: 13:20:35
(UTC+00:00)
Language:

CSL-04 Rocket - Orbit

View from above orbital plane
View from above orbital plane
View from above satellite
View from above satellite

Ground track
Ground track

The orbit data is extracted from the following two-line orbital elements,

1 25732U 99025C   19293.74642670 -.00000039 +00000-0 +30441-5 0  9994
2 25732 098.9700 315.5122 0037477 174.8330 315.0975 14.17668686057710
Epoch (UTC): 20 October 2019 17:54:51
Eccentricity: 0.0037477
inclination: 98.9700°
perigee height: 806 km
apogee height: 860 km
right ascension of ascending node: 315.5122°
argument of perigee: 174.8330°
revolutions per day: 14.17668686
mean anomaly at epoch: 315.0975°
orbit number at epoch: 5771

The dashed part of the orbit path shows where the satellite is in the earth's shadow,  

DLR